Location: East Fork Observatory
(32.9757°N, 94.4485°W)
Time: 16:19:32
(UTC-05:00)

Tiangong 2 - Visible Passes

Search period start: 22 March 2019 00:00
Search period end: 01 April 2019 00:00
Orbit: 379 x 390 km, 42.8° (Epoch: 22 March)

Date Brightness Start Highest point End Pass type
(mag) Time Alt. Az. Time Alt. Az. Time Alt. Az.
22 Mar 2.4 05:51:54 28° NNW 05:52:54 37° NNE 05:55:53 10° E visible
23 Mar 4.6 04:55:32 12° ENE 04:55:32 12° ENE 04:55:56 10° ENE visible
23 Mar 1.2 06:27:47 16° WNW 06:30:11 57° SSW 06:33:18 10° SE visible
24 Mar 2.2 05:31:35 42° E 05:31:35 42° E 05:33:52 10° ESE visible
25 Mar 2.2 06:07:50 27° SW 06:07:50 27° SW 06:10:33 10° SSE visible
27 Mar 3.2 20:38:46 10° S 20:39:49 14° SSE 20:39:49 14° SSE visible
28 Mar 2.6 21:14:40 10° SW 21:16:23 30° SW 21:16:23 30° SW visible
29 Mar 1.9 20:15:28 10° SSW 20:18:19 32° SE 20:20:29 15° E visible
29 Mar 4.3 21:52:11 10° W 21:52:45 14° W 21:52:45 14° W visible
30 Mar 1.6 20:52:20 10° WSW 20:55:25 55° NNW 20:56:41 30° NE visible
31 Mar 3.4 21:30:19 10° WNW 21:32:40 21° NNW 21:32:40 21° NNW visible
